FW1266 Weather Reports


time (UTC)temp
F
wind
direction
speed
knots
gust
knots
rain 1hr
in
rain 24hr
in
rain mn
in
humidity
%
barometer
mb
20260509102348 54 117 3.5 7.8 0.00 0.00 0.00 88 1002.5
20260509102126 54 146 3.5 8.7 0.00 0.00 0.00 88 1002.4
20260509101336 54 131 2.6 8.7 0.00 0.00 0.00 88 1002.5
20260509100830 54 264 2.6 10.4 0.00 0.00 0.00 88 1002.7
20260509100324 54 223 2.6 10.4 0.00 0.00 0.00 88 1002.5
20260509095818 54 232 3.5 8.7 0.00 0.00 0.00 89 1002.6
20260509095553 54 206 2.6 8.7 0.00 0.00 0.00 89 1002.6
20260509094806 54 196 2.6 6.1 0.00 0.00 0.00 89 1002.8
20260509094300 54 224 2.6 6.1 0.00 0.00 0.00 89 1002.9
20260509093755 54 121 2.6 9.6 0.00 0.00 0.00 89 1002.8
20260509093527 54 135 2.6 9.6 0.00 0.00 0.00 89 1003.0
20260509092742 54 238 1.7 7.0 0.00 0.00 0.00 89 1003.0
20260509092237 54 214 2.6 7.8 0.00 0.00 0.00 89 1003.0
20260509091730 54 173 2.6 7.8 0.00 0.00 0.00 89 1003.0
20260509091224 54 217 2.6 7.0 0.00 0.00 0.00 89 1003.0
20260509090718 54 188 2.6 7.8 0.00 0.00 0.00 88 1002.9
20260509090212 54 269 2.6 8.7 0.00 0.00 0.00 88 1003.1
20260509085706 54 229 1.7 8.7 0.00 0.00 0.00 88 1003.1
20260509085200 54 217 2.6 8.7 0.00 0.00 0.00 88 1003.1
20260509084654 54 238 2.6 8.7 0.00 0.00 0.00 88 1003.1
20260509084148 54 234 2.6 10.4 0.00 0.00 0.00 88 1003.2
20260509083642 54 212 2.6 10.4 0.00 0.00 0.00 88 1003.3
20260509083136 54 197 2.6 7.8 0.00 0.00 0.00 88 1003.3
20260509082912 54 161 1.7 6.1 0.00 0.00 0.00 88 1003.3
20260509082123 54 218 1.7 5.2 0.00 0.00 0.00 88 1003.4
20260509081618 54 201 1.7 7.0 0.00 0.00 0.00 88 1003.5
20260509081112 54 211 1.7 7.0 0.00 0.00 0.00 87 1003.4
20260509080606 54 224 1.7 7.0 0.00 0.00 0.00 87 1003.4
20260509075553 54 218 1.7 5.2 0.00 0.00 0.00 87 1003.7
20260509075048 54 219 1.7 5.2 0.00 0.00 0.00 87 1003.7
20260509074543 55 229 1.7 6.1 0.00 0.00 0.00 86 1003.6
20260509074036 55 244 1.7 6.1 0.00 0.00 0.00 86 1003.7
20260509073530 55 144 1.7 6.1 0.00 0.00 0.00 86 1003.7
20260509073024 55 184 1.7 8.7 0.00 0.00 0.00 86 1003.8
20260509072518 55 193 1.7 8.7 0.00 0.00 0.00 85 1003.9
20260509072013 55 197 1.7 5.2 0.00 0.00 0.00 85 1004.0
20260509071506 55 186 0.9 5.2 0.00 0.00 0.00 85 1003.9
20260509070959 55 219 0.9 6.1 0.00 0.00 0.00 84 1004.2
20260509070757 56 210 1.7 6.1 0.00 0.00 0.00 84 1004.5
20260509070750 56 260 1.7 6.1 0.00 0.00 0.00 84 1004.3
20260509065442 56 170 1.7 5.2 0.00 0.00 0.00 83 1004.5
20260509064957 56 212 1.7 7.0 0.00 0.00 0.00 82 1004.6
20260509064948 56 262 1.7 5.2 0.00 0.00 0.00 83 1004.6
20260509064207 56 217 2.6 7.0 0.00 0.00 0.00 81 1004.6
20260509063418 56 248 1.7 7.0 0.00 0.00 0.00 81 1004.6
20260509062912 56 201 1.7 5.2 0.00 0.00 0.00 81 1004.6
20260509062405 56 219 2.6 6.1 0.00 0.00 0.00 80 1004.6
20260509061900 56 155 1.7 6.1 0.00 0.00 0.00 80 1004.6
20260509061354 56 221 0.9 5.2 0.00 0.00 0.00 80 1004.6
20260509060848 55 205 1.7 5.2 0.00 0.00 0.00 79 1004.9
20260509060622 55 275 1.7 5.2 0.00 0.00 0.00 79 1005.1
20260509060123 55 243 0.9 3.5 0.00 0.00 0.00 78 1005.0
20260509055329 54 197 0.9 2.6 0.00 0.00 0.00 75 1005.0
20260509055103 54 110 0.9 3.5 0.00 0.00 0.00 69 1005.0
20260509054318 54 193 0.9 3.5 0.00 0.00 0.00 66 1005.1
20260509053812 54 231 0.9 2.6 0.00 0.00 0.00 63 1005.0
20260509053306 54 168 1.7 7.0 0.00 0.00 0.00 61 1005.1
20260509052800 54 172 1.7 7.0 0.00 0.00 0.00 59 1005.2
20260509052254 54 155 0.9 7.0 0.00 0.00 0.00 57 1005.2
20260509051748 54 219 0.9 7.0 0.00 0.00 0.00 55 1005.2
20260509051243 54 240 1.7 5.2 0.00 0.00 0.00 55 1005.3
20260509050737 54 204 0.9 4.3 0.00 0.00 0.00 55 1005.2
20260509050230 54 191 0.9 4.3 0.00 0.00 0.00 55 1005.2
20260509045724 54 213 0.0 4.3 0.00 0.00 0.00 55 1005.1
20260509045218 54 214 0.9 2.6 0.00 0.00 0.00 56 1005.0
20260509044712 54 203 0.9 2.6 0.00 0.00 0.00 58 1005.0
20260509044445 53 162 0.9 2.6 0.00 0.00 0.00 57 1005.1
20260509043939 53 233 0.9 4.3 0.00 0.00 0.00 58 1005.1
20260509043154 52 101 0.9 5.2 0.00 0.00 0.00 59 1005.1
20260509042647 51 200 0.0 4.3 0.00 0.00 0.00 64 1005.1
20260509042141 50 204 0.0 0.9 0.00 0.00 0.00 66 1005.2
20260509041640 49 207 0.0 0.0 0.00 0.00 0.00 68 1005.2
20260509041126 49 202 0.0 0.0 0.00 0.00 0.00 67 1005.2
20260509040620 49 204 0.0 0.0 0.00 0.00 0.00 67 1005.3
20260509040115 48 204 0.0 0.0 0.00 0.00 0.00 66 1005.4
20260509035607 48 204 0.0 0.0 0.00 0.00 0.00 64 1005.4
20260509035101 48 204 0.0 0.0 0.00 0.00 0.00 63 1005.4
20260509034832 48 204 0.0 0.0 0.00 0.00 0.00 63 1005.5
20260509034050 48 204 0.0 0.0 0.00 0.00 0.00 62 1005.6
20260509033543 49 204 0.0 0.0 0.00 0.00 0.00 60 1005.7
20260509033316 49 204 0.0 0.0 0.00 0.00 0.00 60 1005.7
20260509032530 49 204 0.0 0.0 0.00 0.00 0.00 59 1005.7
20260509032307 49 204 0.0 0.0 0.00 0.00 0.00 58 1005.7
20260509031519 49 204 0.0 0.0 0.00 0.00 0.00 57 1005.9
20260509031012 49 204 0.0 0.0 0.00 0.00 0.00 56 1005.9
20260509030507 49 204 0.0 0.0 0.00 0.00 0.00 56 1005.9
20260509030001 49 204 0.0 0.0 0.00 0.00 0.00 55 1005.9
20260509025455 49 204 0.0 0.0 0.00 0.00 0.00 54 1006.0
20260509024949 49 204 0.0 0.0 0.00 0.00 0.00 55 1006.1
20260509024443 49 204 0.0 0.0 0.00 0.00 0.00 52 1006.2
20260509023937 49 204 0.0 0.0 0.00 0.00 0.00 52 1006.2
20260509023430 49 204 0.0 0.0 0.00 0.00 0.00 51 1006.3
20260509022925 49 204 0.0 0.0 0.00 0.00 0.00 51 1006.4
20260509022419 49 207 0.0 0.0 0.00 0.00 0.00 52 1006.4
20260509021913 50 208 0.0 0.0 0.00 0.00 0.00 53 1006.5
20260509021406 50 208 0.0 0.0 0.00 0.00 0.00 52 1006.5
20260509021142 50 208 0.0 0.0 0.00 0.00 0.00 50 1006.5
20260509020355 50 211 0.0 0.0 0.00 0.00 0.00 50 1006.5
20260509015849 51 211 0.0 0.0 0.00 0.00 0.00 52 1006.4
20260509015343 51 211 0.0 0.0 0.00 0.00 0.00 52 1006.3
20260509014837 51 197 0.0 0.0 0.00 0.00 0.00 50 1006.4
20260509014331 51 198 0.0 0.9 0.00 0.00 0.00 49 1006.3
20260509013825 52 198 0.0 0.9 0.00 0.00 0.00 46 1006.3
20260509013319 52 198 0.0 0.0 0.00 0.00 0.00 46 1006.3
20260509012813 52 198 0.0 0.0 0.00 0.00 0.00 45 1006.3
20260509012307 53 198 0.0 0.0 0.00 0.00 0.00 48 1006.2
20260509011801 53 198 0.0 0.0 0.00 0.00 0.00 45 1006.2
20260509011256 54 198 0.0 0.0 0.00 0.00 0.00 44 1006.3
20260509011028 55 198 0.0 0.0 0.00 0.00 0.00 42 1006.2
20260509010243 55 198 0.0 0.0 0.00 0.00 0.00 42 1006.3
20260509005752 57 198 0.0 0.0 0.00 0.00 0.00 38 1006.3
20260509005744 56 198 0.0 0.0 0.00 0.00 0.00 38 1006.3
20260509005004 58 198 0.0 0.0 0.00 0.00 0.00 36 1006.3
20260509004219 60 199 0.0 0.0 0.00 0.00 0.00 33 1006.3
20260509003951 61 199 0.0 0.0 0.00 0.00 0.00 33 1006.3
20260509003207 62 199 0.0 0.9 0.00 0.00 0.00 29 1006.4
20260509002701 63 198 0.0 0.9 0.00 0.00 0.00 28 1006.5
20260509002155 63 198 0.0 0.9 0.00 0.00 0.00 26 1006.4
20260509001927 64 198 0.0 0.9 0.00 0.00 0.00 26 1006.5
20260509001143 64 195 0.0 2.6 0.00 0.00 0.00 24 1006.5
20260509000637 64 195 0.0 2.6 0.00 0.00 0.00 25 1006.5
20260509000130 64 212 0.0 1.7 0.00 0.00 0.00 23 1006.5
20260508235625 64 207 0.0 1.7 0.00 0.00 0.00 22 1006.6
20260508235357 64 210 0.0 1.7 0.00 0.00 0.00 23 1006.7
20260508234613 64 210 0.9 2.6 0.00 0.00 0.00 24 1006.8
20260508234107 64 205 0.9 2.6 0.00 0.00 0.00 22 1006.9
20260508233601 63 202 0.9 2.6 0.00 0.00 0.00 23 1007.0
20260508233335 64 232 0.9 1.7 0.00 0.00 0.00 22 1007.0
20260508232549 64 209 0.9 1.7 0.00 0.00 0.00 22 1007.2
20260508232043 64 212 0.9 1.7 0.00 0.00 0.00 22 1007.1
20260508231537 63 220 0.0 1.7 0.00 0.00 0.00 21 1007.1
20260508231032 63 217 0.0 1.7 0.00 0.00 0.00 23 1007.2
20260508230525 62 234 0.0 1.7 0.00 0.00 0.00 26 1007.4
20260508230019 61 217 0.9 1.7 0.00 0.00 0.00 24 1007.3
20260508225512 60 207 0.9 3.5 0.00 0.00 0.00 26 1007.4
20260508225251 60 280 1.7 3.5 0.00 0.00 0.00 27 1007.4
20260508224500 59 271 1.7 4.3 0.00 0.00 0.00 26 1007.5
20260508223955 59 274 2.6 6.1 0.00 0.00 0.00 27 1007.5
20260508223448 59 280 3.5 6.1 0.00 0.00 0.00 28 1007.4
20260508222943 59 303 3.5 7.0 0.00 0.00 0.00 31 1007.5
20260508222437 59 289 3.5 7.0 0.00 0.00 0.00 29 1007.5
20260508221932 59 285 2.6 6.1 0.00 0.00 0.00 28 1007.7
20260508221424 59 291 1.7 6.1 0.00 0.00 0.00 32 1007.7
20260508220918 59 286 1.7 6.1 0.00 0.00 0.00 30 1007.8
20260508220421 59 278 2.6 6.1 0.00 0.00 0.00 28 1007.9
20260508215916 59 286 3.5 7.0 0.00 0.00 0.00 28 1008.0
20260508215657 59 273 3.5 7.0 0.00 0.00 0.00 28 1008.0
20260508214916 59 278 2.6 5.2 0.00 0.00 0.00 28 1008.0
20260508214415 59 296 1.7 5.2 0.00 0.00 0.00 31 1007.9
20260508213942 58 253 2.6 5.2 0.00 0.00 0.00 31 1007.9
20260508213932 59 243 1.7 4.3 0.00 0.00 0.00 30 1008.0
20260508213158 58 285 2.6 8.7 0.00 0.00 0.00 31 1008.0
20260508212655 58 293 2.6 8.7 0.00 0.00 0.00 35 1008.0
20260508212158 57 290 3.5 7.0 0.00 0.00 0.00 34 1008.0
20260508211412 57 277 4.3 7.8 0.00 0.00 0.00 39 1008.0
20260508210914 56 293 4.3 7.8 0.00 0.00 0.00 42 1008.1
20260508210413 56 300 4.3 7.0 0.00 0.00 0.00 47 1008.3
20260508205916 56 287 4.3 7.0 0.00 0.00 0.00 44 1008.3
20260508205452 56 295 4.3 7.0 0.00 0.00 0.00 44 1008.4
20260508205437 56 282 4.3 7.0 0.00 0.00 0.00 47 1008.4
20260508204415 56 283 4.3 8.7 0.00 0.00 0.00 43 1008.4
20260508203910 56 269 5.2 8.7 0.00 0.00 0.00 39 1008.5
20260508203403 57 290 4.3 7.8 0.00 0.00 0.00 37 1008.6
20260508202857 57 269 3.5 7.8 0.00 0.00 0.00 44 1008.7
20260508202351 57 300 4.3 8.7 0.00 0.00 0.00 41 1008.7
20260508202133 57 291 4.3 8.7 0.00 0.00 0.00 45 1008.8
20260508201338 57 278 4.3 8.7 0.00 0.00 0.00 42 1008.9
20260508200833 57 279 5.2 8.7 0.00 0.00 0.00 44 1008.9
20260508200327 57 278 4.3 7.8 0.00 0.00 0.00 39 1008.9
20260508195820 57 290 4.3 7.8 0.00 0.00 0.00 45 1009.0
20260508195602 56 291 4.3 7.8 0.00 0.00 0.00 49 1009.1
20260508194820 57 260 3.5 7.0 0.00 0.00 0.00 46 1009.2
20260508194320 57 282 2.6 7.0 0.00 0.00 0.00 44 1009.1
20260508193819 57 267 2.6 6.1 0.00 0.00 0.00 49 1009.2
20260508193319 56 260 2.6 5.2 0.00 0.00 0.00 48 1009.2
20260508192818 56 248 3.5 7.8 0.00 0.00 0.00 45 1009.3
20260508192318 56 269 2.6 7.8 0.00 0.00 0.00 45 1009.3
20260508191818 56 263 2.6 6.1 0.00 0.00 0.00 46 1009.3
20260508191603 56 238 3.5 6.1 0.00 0.00 0.00 50 1009.5
20260508190818 55 275 2.6 6.1 0.00 0.00 0.00 55 1009.5
20260508190319 55 215 3.5 7.0 0.00 0.00 0.00 56 1009.5
20260508185819 54 245 4.3 8.7 0.00 0.00 0.00 61 1009.5
20260508185320 54 284 5.2 8.7 0.00 0.00 0.00 62 1009.5
20260508185105 54 290 5.2 9.6 0.00 0.00 0.00 66 1009.4
20260508184603 54 281 5.2 9.6 0.00 0.00 0.00 65 1009.5
20260508183821 54 277 5.2 8.7 0.00 0.00 0.00 68 1009.5
20260508183315 54 283 5.2 9.6 0.00 0.00 0.00 66 1009.6
20260508182845 54 284 5.2 9.6 0.00 0.00 0.00 67 1009.7
20260508182833 54 274 5.2 9.6 0.00 0.00 0.00 69 1009.6
20260508181813 55 276 4.3 7.8 0.00 0.00 0.00 61 1009.7
20260508181311 55 294 5.2 7.8 0.00 0.00 0.00 59 1009.6
20260508180811 54 283 5.2 7.8 0.00 0.00 0.00 64 1009.8
20260508180311 54 266 5.2 7.8 0.00 0.00 0.00 62 1009.9
20260508175812 54 269 5.2 8.7 0.00 0.00 0.00 65 1010.0
20260508175417 55 286 4.3 7.8 0.00 0.00 0.00 61 1010.2
20260508175358 55 285 4.3 8.7 0.00 0.00 0.00 67 1010.1
20260508174829 55 285 4.3 7.8 0.00 0.00 0.00 64 1010.2
20260508173808 55 285 4.3 7.8 0.00 0.00 0.00 49 1010.2
20260508173309 55 298 4.3 8.7 0.00 0.00 0.00 49 1010.2
20260508172809 55 285 5.2 8.7 0.00 0.00 0.00 51 1010.4
20260508172338 55 290 4.3 7.8 0.00 0.00 0.00 47 1010.5
20260508172326 55 298 4.3 7.8 0.00 0.00 0.00 45 1010.5
20260508171302 55 285 3.5 7.8 0.00 0.00 0.00 45 1010.6
20260508170803 55 270 3.5 7.8 0.00 0.00 0.00 47 1010.6
20260508170304 55 271 4.3 7.0 0.00 0.00 0.00 46 1010.7
20260508165802 55 301 4.3 7.0 0.00 0.00 0.00 50 1010.7
20260508165306 55 289 4.3 7.0 0.00 0.00 0.00 50 1010.8
20260508164803 55 293 4.3 7.0 0.00 0.00 0.00 49 1010.7
20260508164303 55 262 4.3 7.8 0.00 0.00 0.00 50 1010.9
20260508163804 55 276 5.2 7.8 0.00 0.00 0.00 49 1011.0
20260508163304 55 287 4.3 7.0 0.00 0.00 0.00 54 1011.0
20260508162758 55 285 3.5 7.0 0.00 0.00 0.00 51 1011.1
20260508162258 55 266 3.5 9.6 0.00 0.00 0.00 54 1011.2
20260508161830 55 276 4.3 7.8 0.00 0.00 0.00 53 1011.2
20260508161818 55 295 4.3 9.6 0.00 0.00 0.00 58 1011.1
20260508161043 55 279 4.3 7.8 0.00 0.00 0.00 53 1011.2
20260508160300 55 291 4.3 7.8 0.00 0.00 0.00 52 1011.3
20260508155801 55 285 4.3 7.8 0.00 0.00 0.00 53 1011.2
20260508155259 55 293 4.3 7.8 0.00 0.00 0.00 50 1011.2
20260508154802 55 285 4.3 6.1 0.00 0.00 0.00 54 1011.2
20260508154256 55 271 4.3 6.1 0.00 0.00 0.00 48 1011.1
20260508153758 54 266 3.5 6.1 0.00 0.00 0.00 49 1011.0
20260508153538 54 311 3.5 6.1 0.00 0.00 0.00 50 1011.0
20260508152755 54 295 3.5 6.1 0.00 0.00 0.00 60 1011.1
20260508152255 54 294 3.5 6.1 0.00 0.00 0.00 61 1011.1
20260508151754 54 293 3.5 6.1 0.00 0.00 0.00 63 1011.2
20260508151255 54 289 2.6 6.1 0.00 0.00 0.00 61 1011.2
20260508150755 55 280 3.5 7.0 0.00 0.00 0.00 58 1011.3
20260508150255 54 281 3.5 7.0 0.00 0.00 0.00 57 1011.3
20260508145756 54 284 2.6 6.1 0.00 0.00 0.00 59 1011.3
20260508145256 54 314 2.6 6.1 0.00 0.00 0.00 61 1011.4
20260508144755 54 293 2.6 6.1 0.00 0.00 0.00 62 1011.3
20260508144255 54 271 1.7 5.2 0.00 0.00 0.00 60 1011.4
20260508143755 54 295 3.5 7.0 0.00 0.00 0.00 64 1011.4
20260508143256 54 295 2.6 7.0 0.00 0.00 0.00 63 1011.4
20260508142754 54 288 0.9 6.1 0.00 0.00 0.00 68 1011.4
20260508142254 54 274 0.9 4.3 0.00 0.00 0.00 63 1011.4
20260508141755 54 213 0.0 2.6 0.00 0.00 0.00 63 1011.4
20260508141248 54 203 0.0 3.5 0.00 0.00 0.00 66 1011.6
20260508141040 54 219 0.9 3.5 0.00 0.00 0.00 72 1011.6
20260508140237 53 261 0.9 3.5 0.00 0.00 0.00 74 1011.5
20260508135731 53 271 1.7 5.2 0.00 0.00 0.00 73 1011.6
20260508135225 53 248 1.7 5.2 0.00 0.00 0.00 72 1011.7
20260508134719 53 287 0.9 4.3 0.00 0.00 0.00 70 1011.7
20260508134451 54 270 0.0 2.6 0.00 0.00 0.00 68 1011.6
20260508133945 53 217 0.9 2.6 0.00 0.00 0.00 68 1011.6
20260508133201 53 236 0.9 4.3 0.00 0.00 0.00 71 1011.6
20260508132655 52 297 0.9 4.3 0.00 0.00 0.00 70 1011.6
20260508132149 52 279 0.9 2.6 0.00 0.00 0.00 69 1011.6
20260508131643 53 282 0.9 2.6 0.00 0.00 0.00 68 1011.7
20260508131137 53 283 0.0 1.7 0.00 0.00 0.00 68 1011.8
20260508130631 53 186 0.0 1.7 0.00 0.00 0.00 69 1011.8
20260508130124 52 195 0.0 2.6 0.00 0.00 0.00 72 1011.8
20260508125859 52 215 0.0 2.6 0.00 0.00 0.00 72 1011.8
20260508125350 51 203 0.0 0.9 0.00 0.00 0.00 75 1011.8
20260508124607 50 62 0.0 0.9 0.00 0.00 0.00 75 1011.8
20260508124338 51 62 0.0 0.9 0.00 0.00 0.00 73 1011.8
20260508123555 52 82 0.0 0.0 0.00 0.00 0.00 69 1011.8
20260508123048 53 149 0.0 0.0 0.00 0.00 0.00 72 1011.9
20260508122543 51 149 0.0 0.0 0.00 0.00 0.00 73 1011.8
20260508122037 49 149 0.0 0.0 0.00 0.00 0.00 78 1011.9
20260508121531 46 149 0.0 0.0 0.00 0.00 0.00 81 1011.8
20260508121025 44 149 0.0 0.0 0.00 0.00 0.00 84 1011.7
20260508120518 42 149 0.0 0.0 0.00 0.00 0.00 84 1011.7
20260508120251 41 149 0.0 0.0 0.00 0.00 0.00 85 1011.6
20260508115507 41 149 0.0 0.0 0.00 0.00 0.00 85 1011.4
20260508115002 40 149 0.0 0.0 0.00 0.00 0.00 87 1011.2
20260508114455 39 149 0.0 0.9 0.00 0.00 0.00 87 1011.2
20260508113951 38 156 0.0 0.9 0.00 0.00 0.00 88 1011.1
20260508113442 38 156 0.9 1.7 0.00 0.00 0.00 89 1011.1
20260508112937 37 156 1.7 2.6 0.00 0.00 0.00 89 1011.0
20260508112431 37 165 0.9 2.6 0.00 0.00 0.00 89 1011.0
20260508111925 36 163 0.9 1.7 0.00 0.00 0.00 90 1011.0
20260508111418 36 175 1.7 1.7 0.00 0.00 0.00 90 1010.9
20260508111156 35 165 1.7 1.7 0.00 0.00 0.00 91 1011.0
20260508110406 35 162 0.9 1.7 0.00 0.00 0.00 91 1011.0
20260508105900 35 168 1.7 2.6 0.00 0.00 0.00 92 1011.0
20260508105355 34 162 1.7 2.6 0.00 0.00 0.00 92 1011.1
20260508104849 34 164 1.7 1.7 0.00 0.00 0.00 92 1011.1
20260508104343 34 158 1.7 1.7 0.00 0.00 0.00 92 1011.1
20260508104117 34 165 1.7 1.7 0.00 0.00 0.00 92 1011.0
20260508103331 34 166 1.7 1.7 0.00 0.00 0.00 92 1011.0
20260508102825 34 163 1.7 1.7 0.00 0.00 0.00 91 1010.9
20260508102559 34 168 1.7 1.7 0.00 0.00 0.00 91 1010.9